contact:dominique.lefevre@mio.osupytheas.fr, maurice.libes@osupytheas.fr, didier.mallarino@osupytheas.fr
Project:EMSO http://www.emso-fr.org/EMSO-France
Depth: 2436.0 m
Title:EMSO Ligure Ouest : Data MII capteur AQUADOPP
Date,Latitude,Longitude,X_East,Y_North,Z_Up,Amplitude_X,Amplitude_Y,Amplitude_Z,Batterie,SoundSpeed,Heading,Pitch,Roll,Pressure,TIS,Speed,Direction
, degrees North, degrees East, m.s-1, m.s-1,m.s-1, 1, 1, 1, Volt, m.s-1, degree, degree, degree, dbar, degree_C, m.s-1, degree
2019-10-14T00:04:04,42.805,6.029,-0.012,0.01,-0.046,100.0,108.0,99.0,13.4,1505.1,323.6,-0.8,1.8,2470.472,13.27,0.015,309.8
2019-10-14T00:07:05,42.805,6.029,0.009,0.018,-0.038,99.0,108.0,99.0,13.4,1505.2,327.9,-0.7,1.8,2470.249,13.29,0.02,26.6
2019-10-14T00:10:06,42.805,6.029,-0.017,0.013,-0.062,101.0,106.0,99.0,13.3,1505.3,324.6,-0.8,1.8,2470.187,13.31,0.021,307.4
2019-10-14T00:13:07,42.805,6.029,-0.006,0.012,-0.066,100.0,111.0,98.0,13.4,1505.3,324.3,-0.7,1.8,2470.069,13.32,0.013,333.4
2019-10-14T00:16:08,42.805,6.029,0.002,0.019,-0.001,100.0,109.0,99.0,13.4,1505.3,325.3,-0.7,1.8,2469.987,13.32,0.019,6.0
2019-10-14T00:19:09,42.805,6.029,0.003,-0.002,-0.057,99.0,108.0,100.0,13.3,1505.3,324.5,-0.7,1.9,2469.944,13.33,0.003,123.7
2019-10-14T00:22:10,42.805,6.029,-0.034,0.004,-0.078,102.0,108.0,98.0,13.3,1505.3,328.4,-0.7,1.8,2469.888,13.33,0.034,276.7
2019-10-14T00:25:11,42.805,6.029,-0.013,-0.012,-0.063,102.0,109.0,98.0,13.4,1505.3,325.8,-0.7,1.8,2469.857,13.33,0.017,227.3
2019-10-14T00:28:12,42.805,6.029,-0.014,0.008,-0.051,102.0,107.0,96.0,13.4,1505.4,323.5,-0.7,1.9,2469.825,13.34,0.016,299.7
2019-10-14T00:31:13,42.805,6.029,0.004,0.002,-0.032,99.0,108.0,98.0,13.3,1505.4,325.1,-0.7,1.9,2469.839,13.34,0.004,63.4
2019-10-14T00:34:14,42.805,6.029,0.012,0.01,-0.056,102.0,109.0,98.0,13.4,1505.4,328.5,-0.7,1.8,2469.821,13.34,0.015,50.2
2019-10-14T00:37:15,42.805,6.029,-0.015,0.012,-0.03,100.0,109.0,99.0,13.4,1505.4,325.6,-0.7,1.8,2469.799,13.34,0.019,308.7
2019-10-14T00:40:16,42.805,6.029,-0.001,0.007,-0.021,101.0,108.0,97.0,13.4,1505.4,326.6,-0.7,1.8,2469.841,13.34,0.007,351.9
2019-10-14T00:43:17,42.805,6.029,-0.048,0.012,-0.034,100.0,108.0,98.0,13.4,1505.4,325.5,-0.8,1.8,2469.827,13.34,0.049,284.0
2019-10-14T00:46:18,42.805,6.029,0.016,0.015,-0.019,100.0,107.0,98.0,13.4,1505.4,323.1,-0.7,1.8,2469.787,13.34,0.021,46.9
2019-10-14T00:49:19,42.805,6.029,-0.001,-0.005,-0.069,100.0,107.0,99.0,13.3,1505.4,327.9,-0.7,1.8,2469.829,13.34,0.005,191.3
2019-10-14T00:52:20,42.805,6.029,-0.032,-0.01,-0.074,101.0,107.0,97.0,13.4,1505.4,328.1,-0.7,1.8,2469.836,13.34,0.033,252.6
2019-10-14T00:55:21,42.805,6.029,-0.05,0.002,-0.057,100.0,107.0,99.0,13.3,1505.4,328.2,-0.7,1.8,2469.834,13.34,0.05,272.3
2019-10-14T00:58:22,42.805,6.029,-0.013,-0.003,-0.064,100.0,107.0,99.0,13.4,1505.4,325.4,-0.7,1.8,2469.824,13.34,0.013,257.0
2019-10-14T01:01:23,42.805,6.029,-0.007,-0.01,-0.022,103.0,108.0,101.0,13.3,1505.4,325.3,-0.7,1.8,2469.81,13.34,0.012,215.0
2019-10-14T01:04:24,42.805,6.029,-0.013,0.005,-0.045,102.0,107.0,99.0,13.3,1505.4,323.6,-0.7,1.9,2469.832,13.34,0.013,291.0
2019-10-14T01:07:25,42.805,6.029,-0.023,0.01,-0.034,100.0,107.0,100.0,13.3,1505.4,324.2,-0.8,1.8,2469.838,13.34,0.025,293.5
2019-10-14T01:10:26,42.805,6.029,-0.024,0.015,-0.058,99.0,110.0,98.0,13.4,1505.4,325.5,-0.7,1.8,2469.822,13.34,0.028,302.0
2019-10-14T01:13:27,42.805,6.029,-0.011,-0.01,-0.089,100.0,108.0,98.0,13.4,1505.4,326.7,-0.7,1.8,2469.818,13.34,0.014,227.7
2019-10-14T01:16:28,42.805,6.029,0.0,0.021,0.031,100.0,107.0,100.0,13.4,1505.4,323.7,-0.7,1.9,2469.824,13.34,0.021,0.0
2019-10-14T01:19:29,42.805,6.029,-0.012,0.026,-0.042,102.0,110.0,98.0,13.4,1505.4,328.7,-0.7,1.8,2469.876,13.34,0.028,335.2
2019-10-14T01:22:30,42.805,6.029,-0.038,0.012,-0.053,101.0,110.0,97.0,13.4,1505.4,323.9,-0.7,1.8,2469.855,13.34,0.039,287.5
2019-10-14T01:25:31,42.805,6.029,0.001,0.015,-0.036,101.0,106.0,98.0,13.3,1505.4,324.8,-0.7,1.9,2469.822,13.34,0.015,3.8
2019-10-14T01:28:32,42.805,6.029,0.015,-0.005,-0.03,100.0,106.0,99.0,13.4,1505.4,325.4,-0.7,1.8,2469.831,13.34,0.015,108.4
2019-10-14T01:31:33,42.805,6.029,0.0,0.016,-0.026,100.0,109.0,98.0,13.4,1505.4,325.8,-0.7,1.8,2469.836,13.34,0.016,0.0
2019-10-14T01:34:34,42.805,6.029,0.005,0.02,-0.038,101.0,109.0,98.0,13.4,1505.4,327.9,-0.7,1.9,2469.868,13.34,0.02,14.0
2019-10-14T01:37:35,42.805,6.029,0.014,0.005,0.002,100.0,108.0,99.0,13.4,1505.4,326.6,-0.7,1.8,2469.867,13.34,0.014,70.4
2019-10-14T01:40:36,42.805,6.029,-0.009,0.003,-0.026,99.0,108.0,98.0,13.4,1505.4,323.7,-0.7,1.8,2469.904,13.34,0.009,288.4
2019-10-14T01:43:37,42.805,6.029,0.008,0.012,-0.022,100.0,109.0,99.0,13.4,1505.4,326.6,-0.7,1.8,2469.866,13.34,0.014,33.7
2019-10-14T01:46:38,42.805,6.029,0.025,0.027,-0.01,100.0,108.0,98.0,13.4,1505.4,324.6,-0.7,1.8,2469.868,13.34,0.036,42.8
2019-10-14T01:49:39,42.805,6.029,0.005,0.002,-0.028,99.0,109.0,99.0,13.4,1505.4,327.0,-0.7,1.9,2469.923,13.34,0.005,68.2
2019-10-14T01:52:40,42.805,6.029,-0.051,0.007,-0.059,100.0,110.0,99.0,13.3,1505.4,324.9,-0.7,1.8,2469.885,13.34,0.051,277.8
2019-10-14T01:55:41,42.805,6.029,-0.018,0.025,-0.052,102.0,107.0,97.0,13.4,1505.4,324.4,-0.7,1.8,2469.866,13.34,0.03,324.2
2019-10-14T01:58:42,42.805,6.029,0.014,0.005,0.001,99.0,107.0,98.0,13.3,1505.4,324.3,-0.7,1.8,2469.874,13.34,0.014,70.4
2019-10-14T02:01:43,42.805,6.029,0.012,0.007,-0.085,100.0,108.0,98.0,13.3,1505.4,327.3,-0.7,1.8,2469.882,13.34,0.013,59.7
2019-10-14T02:04:44,42.805,6.029,-0.009,0.027,-0.023,100.0,108.0,99.0,13.4,1505.4,326.7,-0.7,1.8,2469.871,13.34,0.028,341.6
2019-10-14T02:07:45,42.805,6.029,-0.016,0.0,-0.054,100.0,107.0,98.0,13.4,1505.4,324.4,-0.7,1.8,2469.879,13.34,0.016,270.0
2019-10-14T02:10:46,42.805,6.029,0.005,0.023,0.0,100.0,108.0,98.0,13.4,1505.4,326.5,-0.8,1.8,2469.885,13.34,0.023,12.3
2019-10-14T02:13:47,42.805,6.029,-0.004,0.021,-0.019,100.0,110.0,97.0,13.3,1505.4,327.9,-0.7,1.8,2469.912,13.34,0.021,349.2
2019-10-14T02:16:48,42.805,6.029,0.016,0.024,-0.018,100.0,106.0,97.0,13.3,1505.4,325.8,-0.7,1.8,2469.83,13.34,0.028,33.7
2019-10-14T02:19:49,42.805,6.029,0.026,0.027,-0.028,100.0,107.0,98.0,13.4,1505.4,322.9,-0.7,1.9,2469.868,13.34,0.037,43.9
2019-10-14T02:22:50,42.805,6.029,-0.022,0.012,-0.075,99.0,106.0,99.0,13.3,1505.4,325.6,-0.7,1.8,2469.906,13.34,0.025,298.6
2019-10-14T02:25:51,42.805,6.029,-0.012,0.005,-0.088,99.0,106.0,97.0,13.4,1505.4,323.2,-0.7,1.8,2469.889,13.34,0.013,292.6
2019-10-14T02:28:52,42.805,6.029,-0.038,0.012,-0.071,99.0,107.0,98.0,13.4,1505.4,325.1,-0.7,1.8,2469.89,13.34,0.039,287.5
2019-10-14T02:31:53,42.805,6.029,0.0,0.01,0.004,99.0,107.0,97.0,13.4,1505.4,325.6,-0.7,1.8,2469.841,13.34,0.01,0.0
2019-10-14T02:34:54,42.805,6.029,-0.01,0.027,-0.084,102.0,107.0,97.0,13.4,1505.4,328.4,-0.7,1.8,2469.838,13.34,0.028,339.7
2019-10-14T02:37:55,42.805,6.029,-0.029,-0.003,-0.079,99.0,107.0,96.0,13.3,1505.4,324.4,-0.7,1.8,2469.878,13.34,0.029,264.1
2019-10-14T02:40:56,42.805,6.029,-0.014,0.031,-0.031,100.0,105.0,97.0,13.4,1505.4,324.3,-0.7,1.8,2469.847,13.34,0.034,335.7
2019-10-14T02:43:57,42.805,6.029,0.011,0.03,-0.011,99.0,108.0,97.0,13.3,1505.4,328.3,-0.7,1.8,2469.904,13.34,0.031,20.1
2019-10-14T02:46:58,42.805,6.029,-0.023,0.013,-0.028,98.0,107.0,97.0,13.3,1505.4,323.8,-0.7,1.8,2469.912,13.34,0.026,299.5
2019-10-14T02:49:59,42.805,6.029,-0.015,0.006,-0.068,101.0,106.0,98.0,13.3,1505.4,324.9,-0.7,1.8,2469.886,13.34,0.016,291.8
2019-10-14T02:53:00,42.805,6.029,0.003,0.009,-0.044,100.0,106.0,98.0,13.4,1505.4,328.3,-0.7,1.8,2469.917,13.34,0.009,18.4
2019-10-14T02:56:01,42.805,6.029,-0.009,0.007,-0.043,100.0,105.0,97.0,13.4,1505.4,323.8,-0.7,1.8,2469.887,13.35,0.011,307.9
2019-10-14T02:59:02,42.805,6.029,-0.018,0.017,-0.044,100.0,107.0,97.0,13.4,1505.4,326.8,-0.7,1.8,2469.898,13.34,0.024,313.4
2019-10-14T03:02:03,42.805,6.029,0.012,-0.018,-0.064,100.0,106.0,97.0,13.4,1505.4,325.9,-0.7,1.8,2469.904,13.34,0.021,146.3
2019-10-14T03:05:04,42.805,6.029,-0.002,0.033,0.0,98.0,108.0,97.0,13.3,1505.4,327.0,-0.7,1.8,2469.869,13.34,0.033,356.5
2019-10-14T03:08:05,42.805,6.029,0.03,0.004,-0.022,99.0,107.0,97.0,13.4,1505.4,323.8,-0.7,1.8,2469.91,13.34,0.03,82.4
2019-10-14T03:11:06,42.805,6.029,0.015,0.005,-0.019,98.0,107.0,99.0,13.3,1505.4,326.9,-0.7,1.9,2469.88,13.34,0.015,71.6
2019-10-14T03:14:07,42.805,6.029,-0.011,0.002,-0.026,99.0,106.0,99.0,13.4,1505.4,324.9,-0.7,1.8,2469.898,13.34,0.011,280.3
2019-10-14T03:17:08,42.805,6.029,-0.016,0.023,-0.025,99.0,106.0,98.0,13.3,1505.4,323.6,-0.7,1.8,2469.876,13.34,0.028,325.2
2019-10-14T03:20:09,42.805,6.029,0.025,0.023,-0.026,98.0,106.0,97.0,13.3,1505.4,326.1,-0.7,1.9,2469.907,13.34,0.033,47.4
2019-10-14T03:23:10,42.805,6.029,0.016,0.007,-0.003,98.0,106.0,97.0,13.4,1505.4,325.1,-0.7,1.8,2469.912,13.34,0.017,66.4
2019-10-14T03:26:11,42.805,6.029,0.016,0.045,-0.016,99.0,106.0,97.0,13.4,1505.4,328.2,-0.7,1.8,2469.925,13.34,0.047,19.6
2019-10-14T03:29:12,42.805,6.029,-0.03,0.013,-0.054,99.0,108.0,98.0,13.4,1505.4,323.8,-0.7,1.9,2469.914,13.34,0.032,293.4
2019-10-14T03:32:13,42.805,6.029,0.009,0.032,0.003,99.0,106.0,97.0,13.4,1505.4,327.3,-0.7,1.8,2469.884,13.34,0.033,15.7
2019-10-14T03:35:14,42.805,6.029,0.037,0.014,0.021,96.0,106.0,98.0,13.3,1505.4,324.6,-0.7,1.8,2469.94,13.34,0.039,69.3
2019-10-14T03:38:15,42.805,6.029,0.003,0.0,-0.047,98.0,105.0,97.0,13.3,1505.4,328.6,-0.7,1.8,2469.898,13.34,0.003,90.0
2019-10-14T03:41:16,42.805,6.029,-0.007,0.007,-0.04,98.0,107.0,98.0,13.3,1505.4,322.9,-0.7,1.8,2469.913,13.34,0.009,315.0
2019-10-14T03:44:17,42.805,6.029,0.018,0.01,-0.031,100.0,105.0,97.0,13.3,1505.4,324.7,-0.8,1.8,2469.913,13.34,0.02,60.9
2019-10-14T03:47:18,42.805,6.029,0.021,-0.008,-0.056,97.0,106.0,98.0,13.4,1505.4,326.5,-0.7,1.8,2469.974,13.34,0.022,110.9
2019-10-14T03:50:19,42.805,6.029,0.021,0.002,-0.046,98.0,107.0,98.0,13.4,1505.4,323.9,-0.7,1.8,2469.95,13.34,0.021,84.6
2019-10-14T03:53:20,42.805,6.029,0.003,0.011,-0.027,99.0,105.0,98.0,13.4,1505.4,326.3,-0.7,1.8,2469.934,13.34,0.011,15.3
2019-10-14T03:56:21,42.805,6.029,0.025,0.023,-0.019,99.0,105.0,97.0,13.4,1505.4,325.5,-0.7,1.8,2469.889,13.34,0.033,47.4
2019-10-14T03:59:22,42.805,6.029,0.058,0.008,0.004,98.0,106.0,97.0,13.4,1505.4,327.9,-0.7,1.8,2469.917,13.34,0.058,82.2
2019-10-14T04:02:23,42.805,6.029,0.058,0.01,0.056,99.0,105.0,98.0,13.4,1505.4,324.4,-0.7,1.9,2469.941,13.34,0.058,80.2
2019-10-14T04:05:24,42.805,6.029,0.051,0.019,0.015,98.0,106.0,98.0,13.4,1505.4,326.1,-0.7,1.8,2469.96,13.34,0.054,69.6
2019-10-14T04:08:25,42.805,6.029,0.001,0.029,0.0,98.0,105.0,98.0,13.4,1505.4,327.1,-0.7,1.9,2469.964,13.34,0.029,2.0
2019-10-14T04:11:26,42.805,6.029,0.032,-0.004,-0.018,98.0,106.0,97.0,13.4,1505.4,327.9,-0.7,1.8,2469.976,13.34,0.032,97.1
2019-10-14T04:14:27,42.805,6.029,0.041,0.026,0.007,99.0,105.0,97.0,13.4,1505.4,324.0,-0.7,1.9,2469.949,13.34,0.048,57.6
2019-10-14T04:17:28,42.805,6.029,0.035,0.016,-0.022,101.0,105.0,97.0,13.3,1505.4,325.9,-0.7,1.8,2469.996,13.34,0.038,65.4
2019-10-14T04:20:29,42.805,6.029,0.005,0.005,0.012,98.0,106.0,98.0,13.3,1505.4,325.5,-0.7,1.8,2469.944,13.34,0.007,45.0
2019-10-14T04:23:30,42.805,6.029,0.021,0.028,0.001,98.0,105.0,97.0,13.4,1505.4,325.5,-0.7,1.9,2469.982,13.34,0.035,36.9
2019-10-14T04:26:31,42.805,6.029,0.019,0.027,-0.014,99.0,103.0,97.0,13.4,1505.4,326.7,-0.7,1.8,2469.963,13.34,0.033,35.1
2019-10-14T04:29:32,42.805,6.029,0.042,0.011,-0.019,101.0,106.0,96.0,13.3,1505.4,325.2,-0.7,1.8,2469.985,13.34,0.043,75.3
2019-10-14T04:32:33,42.805,6.029,-0.022,0.034,-0.032,98.0,104.0,98.0,13.4,1505.4,323.7,-0.7,1.8,2469.962,13.34,0.04,327.1
2019-10-14T04:35:34,42.805,6.029,-0.003,-0.006,-0.053,99.0,106.0,97.0,13.4,1505.4,325.1,-0.7,1.8,2469.967,13.34,0.006,206.6
2019-10-14T04:38:35,42.805,6.029,0.003,0.024,-0.007,98.0,106.0,98.0,13.3,1505.4,326.7,-0.7,1.8,2470.006,13.34,0.024,7.1
2019-10-14T04:41:36,42.805,6.029,-0.018,0.013,-0.054,99.0,105.0,97.0,13.4,1505.4,327.5,-0.7,1.8,2469.992,13.34,0.022,305.8
2019-10-14T04:44:37,42.805,6.029,-0.051,0.002,-0.074,98.0,104.0,97.0,13.4,1505.4,327.9,-0.7,1.8,2469.989,13.34,0.051,272.2
2019-10-14T04:47:38,42.805,6.029,-0.018,0.01,-0.055,99.0,106.0,97.0,13.4,1505.4,323.5,-0.7,1.8,2469.995,13.34,0.02,299.1
2019-10-14T04:50:39,42.805,6.029,-0.001,0.018,-0.033,99.0,106.0,97.0,13.3,1505.4,326.4,-0.7,1.8,2469.969,13.34,0.018,356.8
2019-10-14T04:53:40,42.805,6.029,0.002,0.025,-0.03,99.0,109.0,98.0,13.4,1505.4,328.2,-0.7,1.8,2469.972,13.34,0.025,4.6
2019-10-14T04:56:41,42.805,6.029,0.013,0.018,-0.021,98.0,108.0,97.0,13.3,1505.4,325.8,-0.8,1.8,2470.002,13.34,0.022,35.8
